This is the latest recevied weather packets stored in our database for station/object OH3FZQ-L1. If no packets are shown the sender has not sent any weather packets the latest 10 day(s).
| Time | Temp. | Humidity | Pressure | Rain* | Wind** | Luminosity | Snow |
|---|---|---|---|---|---|---|---|
| 1777117614 | 22.22° C | 41% | 981.6 hPa | - | - | - | - |
| 1777116714 | 22.22° C | 42% | 981.4 hPa | - | - | - | - |
| 1777115814 | 21.67° C | 40% | 981.4 hPa | - | - | - | - |
| 1777114914 | 21.67° C | 40% | 981.5 hPa | - | - | - | - |
| 1777114013 | 21.67° C | 40% | 981.5 hPa | - | - | - | - |
| 1777113113 | 22.22° C | 42% | 981.6 hPa | - | - | - | - |
| 1777112213 | 21.67° C | 42% | 981.7 hPa | - | - | - | - |
| 1777111313 | 21.67° C | 42% | 981.9 hPa | - | - | - | - |
| 1777110413 | 21.67° C | 42% | 982.1 hPa | - | - | - | - |
| 1777109513 | 21.67° C | 42% | 982.2 hPa | - | - | - | - |
| 1777108613 | 21.67° C | 43% | 982.3 hPa | - | - | - | - |
| 1777107713 | 21.67° C | 43% | 982.3 hPa | - | - | - | - |
| 1777106813 | 21.67° C | 43% | 982.4 hPa | - | - | - | - |
| 1777105912 | 22.22° C | 44% | 982.7 hPa | - | - | - | - |
| 1777105012 | 22.22° C | 45% | 982.8 hPa | - | - | - | - |
| 1777104112 | 22.22° C | 46% | 982.9 hPa | - | - | - | - |
| 1777103214 | 22.22° C | 47% | 983 hPa | - | - | - | - |
| 1777102314 | 22.22° C | 47% | 983.2 hPa | - | - | - | - |
| 1777101414 | 22.22° C | 48% | 983.3 hPa | - | - | - | - |
| 1777100514 | 22.22° C | 44% | 983.4 hPa | - | - | - | - |
| 1777099613 | 22.22° C | 42% | 983.5 hPa | - | - | - | - |
| 1777098713 | 21.67° C | 42% | 983.7 hPa | - | - | - | - |
| 1777097813 | 21.67° C | 42% | 983.9 hPa | - | - | - | - |
| 1777096913 | 21.67° C | 41% | 984.2 hPa | - | - | - | - |
| 1777096013 | 21.67° C | 42% | 984.3 hPa | - | - | - | - |
* Rain since midnight (hover to see other rain measurements)
** Current wind speed in m/s (hover to see current wind gust speed)